カタログに戻る

KX-09

運用中軍事SSO
NORAD 44520·PAYLOAD·🇨🇳 China

打ち上げ Aug 30, 2019 から Jiuquan Satellite Launch Center

Loading…

次のパス (今後24時間)

TLE

最新Source: Space-Track

元期: Sep 14, 2026, 23:14 UTC

1 44520U 19058B   26257.96829072  .00000663  00000-0  62943-4 0  9996
2 44520  97.7767 270.7739 0011111  48.3764 311.8407 14.96841156383465

AllMySatでKX-09をリアルタイム追跡

Download on the App Store